Weather History for Lihue, HI

Change the Weather History Date:

Thursday, March 6, 2014

  Actual Average Record
Temperature  
Mean Temperature 70 °F 72 °F  
Max Temperature 78 °F 78 °F 88 °F (1986)
Min Temperature 61 °F 66 °F 60 °F (1996)
Degree Days  
Heating Degree Days 0 0  
Month to date heating degree days 0 0  
Since 1 July heating degree days 0 0  
Cooling Degree Days 5 7  
Month to date cooling degree days 25 42  
Year to date cooling degree days 401 437  
Growing Degree Days 20 (Base 50)    
Moisture  
Dew Point 64 °F    
Average Humidity 79    
Maximum Humidity 93    
Minimum Humidity 64    
Precipitation  
Precipitation 0.17 in 0.14 in 2.64 in (2003)
Month to date precipitation 0.34 0.87  
Year to date precipitation 10.74 7.78  
Snow  
Snow 0.00 in - - ()
Month to date snowfall 0.0  
Since 1 July snowfall 0.0  
Snow Depth 0.00 in    
Sea Level Pressure  
Sea Level Pressure 29.96 in    
Wind  
Wind Speed 9 mph (WSW)    
Max Wind Speed 21 mph    
Max Gust Speed 26 mph    
Visibility 9 miles    
Events Rain    
T = Trace of Precipitation, MM = Missing Value Source: NWS Daily Summary

Daily Weather History Graph

Daily Weather History Graph

Search for Another Location

Airport:

Trip Planner

Search our weather history database for the weather conditions in past years. The results will help you decide how hot, cold, wet, or windy it might be!

Date:

Astronomy

Mar. 06, 2014 Rise Set
Actual Time 6:53 AM HST 6:43 PM HST
Civil Twilight 6:31 AM HST 7:05 PM HST
Nautical Twilight 6:05 AM HST 7:31 PM HST
Astronomical Twilight 5:39 AM HST 7:57 PM HST
Moon 10:51 AM HST (3/6) No Moon Set
Length of Visible Light 12h 34m
Length of Day
11h 49m
Waxing Crescent, 34% of the Moon is Illuminated
Mar 6
Waxing Crescent
Mar 8
First Quarter
Mar 16
Full
Mar 23
Last Quarter
Mar 30
New

Hourly Weather History & Observations

Time (HST) Temp. Dew Point Humidity Pressure Visibility Wind Dir Wind Speed Gust Speed Precip Events Conditions
12:53 AM 63.0 °F 59.0 °F 87% 30.01 in 10.0 mi West 9.2 mph - N/A   Clear
1:53 AM 63.0 °F 59.0 °F 87% 29.99 in 10.0 mi WNW 9.2 mph - N/A   Clear
2:53 AM 63.0 °F 59.0 °F 87% 29.97 in 10.0 mi West 6.9 mph - N/A   Clear
3:53 AM 63.0 °F 59.0 °F 87% 29.98 in 10.0 mi WNW 10.4 mph - N/A   Clear
4:53 AM 61.0 °F 57.9 °F 90% 29.96 in 10.0 mi West 9.2 mph - N/A   Clear
5:01 AM 60.8 °F 57.2 °F 88% 29.96 in 10.0 mi West 8.1 mph - N/A   Scattered Clouds
5:53 AM 63.0 °F 59.0 °F 87% 29.97 in 10.0 mi West 6.9 mph - N/A   Mostly Cloudy
6:53 AM 64.9 °F 60.1 °F 84% 29.97 in 10.0 mi West 5.8 mph - N/A   Overcast
7:53 AM 64.9 °F 60.1 °F 84% 29.98 in 10.0 mi West 5.8 mph - N/A   Partly Cloudy
8:53 AM 72.0 °F 64.9 °F 78% 29.98 in 10.0 mi South 3.5 mph - N/A   Mostly Cloudy
9:26 AM 73.4 °F 66.2 °F 78% 29.98 in 10.0 mi SSE 9.2 mph - N/A   Mostly Cloudy
9:53 AM 73.0 °F 64.9 °F 76% 29.98 in 10.0 mi SW 5.8 mph - N/A   Overcast
10:36 AM 71.6 °F 66.2 °F 83% 29.98 in 2.5 mi SW 9.2 mph - 0.00 in Rain Rain
10:41 AM 71.6 °F 66.2 °F 83% 29.98 in 8.0 mi Variable 6.9 mph - 0.03 in Rain Light Rain
10:53 AM 73.0 °F 66.9 °F 81% 29.97 in 10.0 mi SSW 8.1 mph - 0.03 in Rain Light Rain
11:22 AM 71.6 °F 66.2 °F 83% 29.98 in 2.5 mi SW 9.2 mph - 0.00 in Rain Rain
11:33 AM 69.8 °F 66.2 °F 88% 29.98 in 1.5 mi West 9.2 mph - 0.04 in Rain Heavy Rain
11:48 AM 71.6 °F 69.8 °F 94% 29.97 in 3.0 mi WSW 11.5 mph - 0.11 in Rain Light Rain
11:53 AM 72.0 °F 69.1 °F 91% 29.96 in 7.0 mi WSW 10.4 mph - 0.11 in Rain Light Rain
12:37 PM 75.2 °F 69.8 °F 83% 29.94 in 10.0 mi SW 13.8 mph - 0.01 in   Mostly Cloudy
12:44 PM 75.2 °F 68.0 °F 78% 29.94 in 10.0 mi SSW 15.0 mph - 0.01 in   Mostly Cloudy
12:53 PM 75.9 °F 69.1 °F 79% 29.93 in 10.0 mi SSW 12.7 mph - 0.01 in   Mostly Cloudy
1:53 PM 72.0 °F 69.1 °F 91% 29.92 in 3.0 mi WSW 12.7 mph 21.9 mph 0.01 in Rain Light Rain
2:53 PM 75.0 °F 69.1 °F 82% 29.89 in 10.0 mi SW 13.8 mph 17.3 mph 0.01 in   Overcast
3:53 PM 78.1 °F 66.0 °F 66% 29.89 in 10.0 mi WSW 13.8 mph - N/A   Clear
4:53 PM 77.0 °F 64.9 °F 66% 29.89 in 10.0 mi WSW 15.0 mph - N/A   Clear
5:53 PM 75.9 °F 63.0 °F 64% 29.90 in 10.0 mi SW 12.7 mph - N/A   Clear
6:53 PM 73.9 °F 62.1 °F 66% 29.93 in 10.0 mi WSW 10.4 mph - N/A   Clear
7:53 PM 71.1 °F 63.0 °F 75% 29.94 in 10.0 mi SW 6.9 mph - N/A   Clear
8:53 PM 70.0 °F 64.0 °F 81% 29.96 in 10.0 mi SSW 6.9 mph - N/A   Clear
9:53 PM 68.0 °F 64.0 °F 87% 29.96 in 10.0 mi SW 5.8 mph - N/A   Clear
10:53 PM 69.1 °F 64.0 °F 84% 29.96 in 10.0 mi SSW 5.8 mph - N/A   Partly Cloudy
11:53 PM 70.0 °F 64.9 °F 84% 29.95 in 10.0 mi SSW 8.1 mph - N/A   Clear